CDT,Max TemperatureF,Mean TemperatureF,Min TemperatureF,Max Dew PointF,MeanDew PointF,Min DewpointF,Max Humidity, Mean Humidity, Min Humidity, Max Sea Level PressureIn, Mean Sea Level PressureIn, Min Sea Level PressureIn, Max VisibilityMiles, Mean VisibilityMiles, Min VisibilityMiles, Max Wind SpeedMPH, Mean Wind SpeedMPH, Max Gust SpeedMPH,PrecipitationIn, CloudCover, Events, WindDirDegrees
2014-4-1,60,48,37,45,41,32,87,63,44,30.08,30.01,29.91,10,10,9,16,11,20,0.06,3,Thunderstorm,261
2014-4-2,,,,,,,,,,30.11,29.99,29.90,10,10,2,20,8,24,0.34,8,Thunderstorm,67
2014-4-3,,,,,,,,,,29.88,29.77,29.64,10,8,1,18,7,23,2.81,7,Thunderstorm,146
2014-4-4,,,,,,,,,,30.13,29.86,29.59,10,10,5,21,10,30,0.28,8,Thunderstorm,270
2014-4-5,,,,,,,,,,30.25,30.18,30.14,10,10,1,9,3,,0.00,3,,40
2014-4-6,,,,,,,,,,30.15,30.03,29.87,10,9,5,13,3,18,0.00,0,,60
2014-4-7,,,,,,,,,,29.85,29.68,29.56,10,10,5,10,6,20,0.41,7,,346
2014-4-8,,,,,,,,,,29.97,29.82,29.73,10,9,3,9,3,18,0.00,4,,295
2014-4-9,,,,,,,,,,30.13,30.05,29.97,10,10,7,12,3,20,0.00,0,,233
2014-4-10,,,,,,,,,,30.02,29.91,29.81,10,10,10,28,15,34,0.00,0,,197
2014-4-11,73,60,46,41,35,30,76,40,22,30.10,30.04,29.94,10,9,1,10,3,16,0.00,1,,34
2014-4-12,78,63,48,55,49,36,72,56,42,30.07,29.95,29.81,10,10,9,26,8,36,0.00,2,,184
2014-4-13,73,68,62,55,53,48,72,59,52,29.87,29.77,29.60,10,10,10,33,17,39,0.25,5,,191
2014-4-14,60,48,35,52,38,21,72,66,56,30.05,29.80,29.57,10,9,2,17,10,26,0.12,8,,284
2014-4-15,44,37,28,21,18,16,64,47,34,30.25,30.17,30.05,10,10,10,10,5,18,0.00,2,,328
2014-4-16,55,42,28,28,23,18,69,45,33,30.34,30.24,30.14,10,10,10,15,5,22,0.00,0,,131
2014-4-17,68,48,28,37,31,19,75,51,30,30.29,30.24,30.19,10,10,9,16,3,21,0.00,0,,200
2014-4-18,69,54,39,43,37,28,71,52,33,30.32,30.26,30.21,10,10,10,8,2,,0.00,1,,358
2014-4-19,75,58,42,45,38,34,71,50,31,30.30,30.25,30.20,10,10,5,10,5,,0.00,0,,61
2014-4-20,78,60,41,46,39,30,76,53,30,30.24,30.17,30.09,10,10,4,10,3,,0.00,0,,183
2014-4-21,69,58,48,54,47,39,72,63,46,30.08,29.99,29.90,10,10,8,13,2,18,0.04,4,,228
2014-4-22,64,53,42,54,42,30,72,58,32,30.01,29.95,29.87,10,9,3,10,4,18,0.00,1,,329
2014-4-23,62,50,39,34,31,28,70,47,34,30.16,30.07,30.00,10,10,10,15,5,16,0.00,0,,48
2014-4-24,78,62,46,52,39,30,72,45,32,30.01,29.84,29.64,10,10,7,18,7,26,0.37,2,Thunderstorm,128
2014-4-25,71,61,51,48,43,39,72,58,33,29.97,29.86,29.64,10,9,2,10,5,20,0.20,2,,279
2014-4-26,75,63,51,48,44,37,63,50,36,29.96,29.92,29.85,10,10,10,14,6,,0.00,0,,192
2014-4-27,71,64,57,59,48,43,73,56,43,29.86,29.77,29.63,10,10,2,17,6,39,0.66,3,Thunderstorm,131
2014-4-28,69,63,57,55,52,46,77,69,59,29.76,29.57,29.45,10,10,3,22,9,33,1.40,4,Thunderstorm,153
2014-4-29,64,58,51,48,42,36,72,59,42,29.77,29.61,29.53,10,10,10,26,7,34,0.00,3,,204
2014-4-30,53,48,44,39,35,32,71,57,44,29.94,29.86,29.76,10,10,7,14,6,22,0.00,6,,242